Location: Peebles
(55.6412°N, 3.1714°W)
Time: 09:59:13
(UTC+01:00)

NOSS 3-3 (A) - Pass Details

Date: 07 February 2022
Orbit: 789 x 1423 km, 63.4° (Epoch: 23 April)

Event Time Altitude Azimuth Distance (km) Brightness Sun altitude
Exits shadow 03:27:48 11° 129° (SE) 2,467 6.3 -37.0°
Maximum altitude 03:30:07 14° 105° (ESE) 2,354 6.4 -36.7°
Drops below altitude 10° 03:33:05 10° 76° (ENE) 2,718 7.0 -36.3°
Sets 03:37:14 0° 53° (NE) 3,817 8.1 -35.8°
